DW3212 Weather Reports


time (UTC)temp
F
wind
direction
speed
knots
gust
knots
rain 1hr
in
rain 24hr
in
rain mn
in
humidity
%
barometer
mb
20260902223059 61 0.0 0.0 0.00 0.02 0.00 92 1021.0
20260902221623 61 0.0 0.0 0.00 0.02 0.00 91 1021.1
20260902220100 61 0.0 0.0 0.00 0.02 0.00 91 1021.1
20260902214601 61 0.0 0.0 0.00 0.03 0.00 90 1021.3
20260902213100 61 0.0 0.0 0.00 0.03 0.00 91 1021.2
20260902211558 61 0.0 0.0 0.00 0.03 0.00 91 1021.3
20260902204601 61 0.0 0.0 0.00 0.03 0.00 91 1021.1
20260902203100 61 0.0 0.0 0.00 0.03 0.00 91 1021.4
20260902201601 61 0.0 0.0 0.00 0.03 0.00 90 1021.0
20260902194605 61 0.0 0.0 0.00 0.03 0.00 89 1021.7
20260902193108 61 0.0 0.0 0.00 0.03 0.00 90 1021.6
20260902191634 61 0.0 0.0 0.00 0.03 0.00 90 1021.7
20260902184600 61 0.0 0.0 0.00 0.03 0.00 90 1021.7
20260902183124 60 0.0 0.0 0.00 0.03 0.00 91 1021.8
20260902181612 60 0.0 0.0 0.00 0.03 0.00 90 1022.0
20260902180104 60 0.0 0.0 0.00 0.03 0.00 90 1021.7
20260902174604 60 0.0 0.0 0.00 0.07 0.00 90 1021.8
20260902173114 60 0.0 0.0 0.00 0.07 0.00 90 1021.9
20260902171618 61 0.0 0.0 0.00 0.07 0.00 89 1022.0
20260902164606 60 0.0 0.0 0.00 0.10 0.00 87 1022.2
20260902163105 60 0.0 0.0 0.00 0.10 0.00 87 1022.2
20260902161605 60 0.0 0.0 0.00 0.10 0.00 88 1022.1
20260902160106 60 0.0 0.0 0.00 0.10 0.00 89 1022.3
20260902154601 59 0.0 0.0 0.00 0.22 0.00 86 1022.5
20260902153059 59 0.0 0.0 0.00 0.22 0.00 91 1022.6
20260902151600 58 0.0 0.0 0.00 0.22 0.00 91 1022.7
20260902144600 57 0.0 0.0 0.00 0.23 0.00 94 1022.9
20260902143058 57 0.0 0.0 0.00 0.23 0.00 93 1022.9
20260902141600 57 0.0 0.0 0.00 0.23 0.00 93 1022.8
20260902140100 57 0.0 0.0 0.00 0.23 0.00 93 1022.5
20260902134558 57 0.0 0.0 0.00 0.25 0.00 93 1022.6
20260902133105 57 0.0 0.0 0.00 0.25 0.00 93 1022.3
20260902131602 56 0.0 0.0 0.00 0.25 0.00 93 1022.1
20260902124643 56 0.0 0.0 0.00 0.25 0.00 95 1022.2
20260902123101 55 0.0 0.0 0.00 0.25 0.00 95 1022.1
20260902121600 55 0.0 0.0 0.00 0.25 0.00 96 1022.1
20260902120105 55 0.0 0.0 0.00 0.25 0.00 96 1022.1
20260902114557 55 0.0 0.0 0.00 0.36 0.00 97 1022.1
20260902113103 54 0.0 0.0 0.00 0.36 0.00 97 1022.2
20260902111606 55 0.0 0.0 0.00 0.36 0.00 98 1022.4
20260902110059 55 0.0 0.0 0.00 0.36 0.00 98 1022.2
20260902104611 55 0.0 0.0 0.00 0.55 0.00 98 1022.1
20260902103102 55 0.0 0.0 0.00 0.55 0.00 98 1022.0
20260902101559 55 0.0 0.0 0.00 0.55 0.00 98 1022.0
20260902100059 55 0.0 0.0 0.00 0.55 0.00 98 1021.7
20260902094559 55 0.0 0.0 0.00 0.56 0.00 98 1021.6
20260902093107 55 0.0 0.0 0.00 0.56 0.00 98 1021.5
20260902091603 55 0.0 0.0 0.00 0.56 0.00 98 1021.5
20260902090114 55 0.0 0.0 0.00 0.56 0.00 98 1021.5
20260902084604 55 0.0 0.0 0.00 0.56 0.00 98 1021.1
20260902083106 55 0.0 0.0 0.00 0.56 0.00 98 1021.2
20260902081601 55 0.0 0.0 0.00 0.56 0.00 98 1021.0
20260902074605 55 0.0 0.0 0.00 0.56 0.00 98 1021.3
20260902073103 55 0.0 0.0 0.00 0.56 0.00 98 1021.5
20260902071600 55 0.0 0.0 0.00 0.56 0.00 98 1021.3
20260902070103 56 0.0 0.0 0.00 0.56 0.00 98 1021.2
20260902064557 56 0.0 0.0 0.00 0.56 0.00 98 1021.4
20260902063056 56 0.0 0.0 0.00 0.56 0.00 98 1021.5
20260902054612 56 0.0 0.0 0.00 0.56 0.00 98 1021.2
20260902053105 56 0.0 0.0 0.00 0.56 0.00 98 1021.0
20260902051556 57 0.0 0.0 0.00 0.56 0.00 98 1020.8
20260902050059 57 0.0 0.0 0.00 0.56 0.00 98 1020.9
20260902044607 57 0.0 0.0 0.00 0.56 0.00 98 1020.8
20260902043108 57 0.0 0.0 0.00 0.56 0.00 98 1020.7
20260902041558 57 0.0 0.0 0.00 0.56 0.00 98 1020.5
20260902040109 57 0.0 0.0 0.00 0.56 0.00 98 1020.3
20260902034605 57 0.0 0.0 0.00 0.56 0.56 98 1020.0
20260902033105 57 0.0 0.0 0.01 0.56 0.56 98 1019.9
20260902031600 58 0.0 0.0 0.01 0.56 0.56 98 1020.0
20260902024600 58 0.0 0.0 0.01 0.56 0.56 98 1020.1
20260902023109 58 0.0 0.0 0.00 0.55 0.55 98 1020.2
20260902021601 58 0.0 0.0 0.00 0.55 0.55 98 1020.1
20260902014602 58 0.0 0.0 0.00 0.55 0.55 98 1020.0
20260902013101 58 0.0 0.0 0.00 0.55 0.55 98 1019.9
20260902011601 58 0.0 0.0 0.00 0.55 0.55 98 1020.1
20260902010117 58 0.0 0.0 0.01 0.55 0.55 98 1019.8
20260902004602 59 0.0 0.0 0.01 0.55 0.55 98 1019.8
20260902003104 59 0.0 0.0 0.01 0.55 0.55 98 1019.6
20260902001620 59 0.0 0.0 0.01 0.55 0.55 98 1019.5
20260902000107 59 0.0 0.0 0.00 0.54 0.54 98 1019.3
20260901234604 59 0.0 0.0 0.00 0.54 0.54 98 1019.1
20260901233102 59 0.0 0.0 0.00 0.54 0.54 97 1019.1
20260901231607 59 0.0 0.0 0.00 0.54 0.54 97 1019.0
20260901230101 60 0.0 0.0 0.00 0.54 0.54 97 1019.2
20260901224559 60 0.0 0.0 0.01 0.54 0.54 97 1019.0